Moffett NAS, CA

12:41 AM PDT on March 27, 2017 (GMT -0700)
Moffett Federal Air Field

Weather History for KNUQ - November, 2007

Change the Weather History Date:

Saturday, November 10, 2007

  Actual Average Record
Temperature  
Mean Temperature 57 °F 58 °F  
Max Temperature 66 °F 67 °F 83 °F (1955)
Min Temperature 48 °F 49 °F 37 °F (1948)
Degree Days  
Heating Degree Days 8    
Month to date heating degree days  
Since 1 July heating degree days  
Cooling Degree Days 0    
Month to date cooling degree days  
Year to date cooling degree days  
Growing Degree Days 7 (Base 50)    
Moisture  
Dew Point 53 °F    
Average Humidity 78    
Maximum Humidity 94    
Minimum Humidity 52    
Precipitation  
Precipitation 0.27 in 0.05 in 2.20 in (1983)
Month to date precipitation 0.49  
Year to date precipitation 10.97  
Sea Level Pressure  
Sea Level Pressure 30.02 in    
Wind  
Wind Speed 3 mph (East)    
Max Wind Speed 10 mph    
Max Gust Speed -    
Visibility 7 miles    
Events Rain    
T = Trace of Precipitation, MM = Missing Value Source: NWS Daily Summary

Daily Weather History Graph

Daily Weather History Graph

Search for Another Location

Airport or City:

Trip Planner

Search our weather history database for the weather conditions in past years. The results will help you decide how hot, cold, wet, or windy it might be!

Date:

Astronomy

Nov. 10, 2007 Rise Set
Actual Time 6:42 AM PST 5:01 PM PST
Civil Twilight 6:14 AM PST 5:29 PM PST
Nautical Twilight 5:43 AM PST 6:00 PM PST
Astronomical Twilight 5:12 AM PST 6:31 PM PST
Moon 7:36 AM PST (11/10) 5:11 PM PST (11/10)
Length of Visible Light 11h 14m
Length of Day
10h 19m
New Moon, 1% of the Moon is Illuminated
Nov 10
New Moon
Nov 17
First Quarter
Nov 24
Full
Dec 1
Last Quarter
Dec 9
New

Hourly Weather History & Observations

Time (PST) Temp. Dew Point Humidity Pressure Visibility Wind Dir Wind Speed Gust Speed Precip Events Conditions
12:56 AM 48.9 °F 46.0 °F 90% 30.06 in 9.0 mi Calm Calm - N/A   Clear
1:56 AM 48.0 °F 45.0 °F 89% 30.07 in 10.0 mi Calm Calm - N/A   Clear
2:56 AM - - N/A% 30.06 in 10.0 mi Calm Calm - N/A   Clear
3:56 AM - - N/A% 30.06 in 10.0 mi Calm Calm - N/A   Clear
4:56 AM - - N/A% 30.07 in 9.0 mi ESE 5.8 mph - N/A   Scattered Clouds
5:56 AM - - N/A% 30.07 in 8.0 mi SSE 4.6 mph - N/A   Partly Cloudy
6:56 AM - - N/A% 30.10 in 6.0 mi Calm Calm - N/A   Haze
7:56 AM 52.0 °F 48.0 °F 86% 30.10 in 7.0 mi Calm Calm - N/A   Mostly Cloudy
8:56 AM 57.0 °F 48.9 °F 74% 30.10 in 10.0 mi SE 5.8 mph - N/A   Mostly Cloudy
9:56 AM 62.1 °F 48.9 °F 62% 30.09 in 10.0 mi ESE 10.4 mph - N/A   Mostly Cloudy
10:56 AM 64.9 °F 48.9 °F 56% 30.08 in 10.0 mi ESE 8.1 mph - N/A   Overcast
11:56 AM 66.9 °F 48.9 °F 52% 30.06 in 10.0 mi SE 6.9 mph - N/A   Mostly Cloudy
12:56 PM 66.9 °F 51.1 °F 57% 30.04 in 10.0 mi ESE 5.8 mph - N/A   Overcast
1:56 PM 66.0 °F 52.0 °F 60% 30.01 in 10.0 mi Calm Calm - 0.00 in   Overcast
2:56 PM 66.0 °F 53.1 °F 63% 29.99 in 10.0 mi SSE 4.6 mph - 0.00 in Rain Light Rain
3:56 PM 64.9 °F 53.1 °F 65% 29.99 in 10.0 mi South 3.5 mph - 0.00 in   Overcast
4:51 PM 60.8 °F 55.4 °F 82% 29.99 in 1.8 mi NNW 4.6 mph - 0.02 in Rain Light Rain
4:56 PM 61.0 °F 57.0 °F 87% 29.99 in 2.0 mi North 4.6 mph - 0.04 in Rain Rain
5:03 PM 60.8 °F 57.2 °F 88% 29.99 in 1.8 mi NNW 5.8 mph - 0.02 in Rain Rain
5:09 PM 60.8 °F 57.2 °F 88% 29.99 in 3.0 mi North 5.8 mph - 0.02 in Rain Light Rain
5:16 PM 60.8 °F 57.2 °F 88% 29.99 in 4.0 mi North 6.9 mph - 0.03 in Rain Light Rain
5:25 PM 60.8 °F 57.2 °F 88% 29.99 in 3.0 mi North 5.8 mph - 0.04 in Rain Light Rain
5:27 PM 60.8 °F 57.2 °F 88% 29.99 in 3.0 mi North 5.8 mph - 0.04 in Rain Light Rain
5:37 PM 60.8 °F 57.2 °F 88% 29.99 in 3.0 mi NNE 4.6 mph - 0.05 in Rain Light Rain
5:56 PM 59.0 °F 57.0 °F 93% 29.99 in 5.0 mi NE 4.6 mph - 0.07 in Rain Light Rain
6:04 PM 59.0 °F 57.2 °F 94% 29.98 in 5.0 mi ENE 4.6 mph - 0.00 in Rain Light Rain
6:32 PM - - N/A% 29.98 in 10.0 mi Calm Calm - 0.01 in Rain Light Rain
6:42 PM - - N/A% 29.98 in 10.0 mi ESE 4.6 mph - 0.01 in   Overcast
6:56 PM - - N/A% 29.99 in 10.0 mi Calm Calm - 0.01 in   Overcast
7:56 PM - - N/A% 29.99 in 10.0 mi SE 4.6 mph - 0.00 in   Overcast
8:56 PM - - N/A% 29.99 in 10.0 mi SE 3.5 mph - 0.00 in Rain Light Rain
9:15 PM - - N/A% 29.97 in 4.0 mi Calm Calm - 0.02 in Rain Light Rain
9:56 PM - - N/A% 29.99 in 3.0 mi Calm Calm - 0.05 in Rain Light Rain
10:14 PM - - N/A% 29.97 in 3.0 mi SE 4.6 mph - 0.02 in Rain Light Rain
10:56 PM - - N/A% 29.97 in 3.0 mi ESE 4.6 mph - 0.03 in   Overcast
11:30 PM - - N/A% 29.96 in 4.0 mi Calm Calm - 0.03 in Rain Rain
11:56 PM - - N/A% 29.97 in 6.0 mi Calm Calm - 0.07 in Rain Light Rain